owner,sensor,date,latitude,longitude,vertical_datum,wind_speed,wind_to_direction,wind_speed_of_gust,qcFlag 
TCOON,ioos:station:TCOON:005:1,2009-08-01T00:00:00Z,27.6346,-97.2370,0.0,7.5,138.0,10.3,'11111222,11111222,11111222' 
TCOON,ioos:station:TCOON:005:1,2009-08-01T01:00:00Z,27.6346,-97.2370,0.0,6.7,145.0,9.9,'11111222,11111222,11111222' 
TCOON,ioos:station:TCOON:005:1,2009-08-01T03:00:00Z,27.6346,-97.2370,0.0,6.9,143.0,9.3,'11111222,11111222,11111222' 
TCOON,ioos:station:TCOON:005:1,2009-08-01T04:00:00Z,27.6346,-97.2370,0.0,6.6,148.0,9.4,'11111222,11111222,11111222' 
TCOON,ioos:station:TCOON:005:1,2009-08-01T05:00:00Z,27.6346,-97.2370,0.0,5.7,153.0,9.1,'11111222,11111222,11111222' 
TCOON,ioos:station:TCOON:005:1,2009-08-01T06:00:00Z,27.6346,-97.2370,0.0,4.4,163.0,5.9,'11111222,11111222,11111222' 
TCOON,ioos:station:TCOON:005:1,2009-08-01T07:00:00Z,27.6346,-97.2370,0.0,4.9,166.0,6.8,'11111222,11111222,11111222' 
TCOON,ioos:station:TCOON:005:1,2009-08-01T08:00:00Z,27.6346,-97.2370,0.0,5.4,167.0,8.2,'11111222,11111222,11111222' 
TCOON,ioos:station:TCOON:005:1,2009-08-01T09:00:00Z,27.6346,-97.2370,0.0,4.7,172.0,6.1,'11111222,11111222,11111222' 
TCOON,ioos:station:TCOON:005:1,2009-08-01T10:00:00Z,27.6346,-97.2370,0.0,5.1,173.0,6.8,'11111222,11111222,11111222' 
TCOON,ioos:station:TCOON:005:1,2009-08-01T11:00:00Z,27.6346,-97.2370,0.0,5.5,177.0,8.2,'11111222,11111222,11111222' 
TCOON,ioos:station:TCOON:005:1,2009-08-01T12:00:00Z,27.6346,-97.2370,0.0,4.2,171.0,5.5,'11111222,11111222,11111222' 
TCOON,ioos:station:TCOON:005:1,2009-08-01T13:00:00Z,27.6346,-97.2370,0.0,4.2,157.0,5.8,'11111222,11111222,11111222' 
TCOON,ioos:station:TCOON:005:1,2009-08-01T14:00:00Z,27.6346,-97.2370,0.0,5.1,158.0,7.4,'11111222,11111222,11111222' 
TCOON,ioos:station:TCOON:005:1,2009-08-01T15:00:00Z,27.6346,-97.2370,0.0,5.4,168.0,6.6,'11111222,11111222,11111222' 
TCOON,ioos:station:TCOON:005:1,2009-08-01T16:00:00Z,27.6346,-97.2370,0.0,6.8,165.0,8.9,'11111222,11111222,11111222' 
TCOON,ioos:station:TCOON:005:1,2009-08-01T17:00:00Z,27.6346,-97.2370,0.0,7.8,161.0,9.9,'11111222,11111222,11111222' 
TCOON,ioos:station:TCOON:005:1,2009-08-01T18:00:00Z,27.6346,-97.2370,0.0,7.8,144.0,10.9,'11111222,11111222,11111222' 
TCOON,ioos:station:TCOON:005:1,2009-08-01T19:00:00Z,27.6346,-97.2370,0.0,8.2,143.0,10.7,'11111222,11111222,11111222' 
TCOON,ioos:station:TCOON:005:1,2009-08-01T20:00:00Z,27.6346,-97.2370,0.0,8.2,141.0,10.9,'11111222,11111222,11111222' 
TCOON,ioos:station:TCOON:005:1,2009-08-01T21:00:00Z,27.6346,-97.2370,0.0,8.8,140.0,99.0,'11111222,11111222,11144222' 
TCOON,ioos:station:TCOON:005:1,2009-08-01T22:00:00Z,27.6346,-97.2370,0.0,10.2,138.0,12.5,'11111222,11111222,11111222' 
TCOON,ioos:station:TCOON:005:1,2009-08-01T23:00:00Z,27.6346,-97.2370,0.0,8.5,137.0,12.1,'11111222,11111222,11111222' 
TCOON,ioos:station:TCOON:005:1,2009-08-02T00:00:00Z,27.6346,-97.2370,0.0,8.1,135.0,11.3,'11111222,11111222,11111222' 
TCOON,ioos:station:TCOON:005:1,2009-08-02T01:00:00Z,27.6346,-97.2370,0.0,6.6,141.0,8.5,'11111222,11111222,11111222' 
TCOON,ioos:station:TCOON:005:1,2009-08-02T02:00:00Z,27.6346,-97.2370,0.0,5.8,135.0,7.7,'11111222,11111222,11111222' 
TCOON,ioos:station:TCOON:005:1,2009-08-02T03:00:00Z,27.6346,-97.2370,0.0,5.9,134.0,8.7,'11111222,11111222,11111222' 
TCOON,ioos:station:TCOON:005:1,2009-08-02T04:00:00Z,27.6346,-97.2370,0.0,5.5,130.0,7.5,'11111222,11111222,11111222' 
TCOON,ioos:station:TCOON:005:1,2009-08-02T05:00:00Z,27.6346,-97.2370,0.0,5.6,138.0,7.8,'11111222,11111222,11111222' 
TCOON,ioos:station:TCOON:005:1,2009-08-02T06:00:00Z,27.6346,-97.2370,0.0,5.4,146.0,7.2,'11111222,11111222,11111222' 
TCOON,ioos:station:TCOON:005:1,2009-08-02T07:00:00Z,27.6346,-97.2370,0.0,3.7,151.0,5.0,'11111222,11111222,11111222' 
TCOON,ioos:station:TCOON:005:1,2009-08-02T08:00:00Z,27.6346,-97.2370,0.0,4.4,152.0,6.0,'11111222,11111222,11111222' 
TCOON,ioos:station:TCOON:005:1,2009-08-02T09:00:00Z,27.6346,-97.2370,0.0,3.9,158.0,5.3,'11111222,11111222,11111222' 
TCOON,ioos:station:TCOON:005:1,2009-08-02T10:00:00Z,27.6346,-97.2370,0.0,3.5,164.0,4.5,'11111222,11111222,11111222' 
TCOON,ioos:station:TCOON:005:1,2009-08-02T11:00:00Z,27.6346,-97.2370,0.0,2.8,163.0,3.4,'11111222,11111222,11111222' 
TCOON,ioos:station:TCOON:005:1,2009-08-02T12:00:00Z,27.6346,-97.2370,0.0,3.2,163.0,4.2,'11111222,11111222,11111222' 
TCOON,ioos:station:TCOON:005:1,2009-08-02T13:00:00Z,27.6346,-97.2370,0.0,3.8,169.0,4.9,'11111222,11111222,11111222' 
TCOON,ioos:station:TCOON:005:1,2009-08-02T14:00:00Z,27.6346,-97.2370,0.0,5.1,172.0,7.3,'11111222,11111222,11111222' 
TCOON,ioos:station:TCOON:005:1,2009-08-02T15:00:00Z,27.6346,-97.2370,0.0,5.1,175.0,7.3,'11111222,11111222,11111222' 
TCOON,ioos:station:TCOON:005:1,2009-08-02T16:00:00Z,27.6346,-97.2370,0.0,5.8,162.0,8.4,'11111222,11111222,11111222' 
TCOON,ioos:station:TCOON:005:1,2009-08-02T17:00:00Z,27.6346,-97.2370,0.0,5.1,175.0,7.4,'11111222,11111222,11111222' 
TCOON,ioos:station:TCOON:005:1,2009-08-02T18:00:00Z,27.6346,-97.2370,0.0,5.7,154.0,8.9,'11111222,11111222,11111222' 
TCOON,ioos:station:TCOON:005:1,2009-08-02T19:00:00Z,27.6346,-97.2370,0.0,7.1,135.0,9.3,'11111222,11111222,11111222' 
TCOON,ioos:station:TCOON:005:1,2009-08-02T20:00:00Z,27.6346,-97.2370,0.0,7.4,138.0,10.5,'11111222,11111222,11111222' 
TCOON,ioos:station:TCOON:005:1,2009-08-02T21:00:00Z,27.6346,-97.2370,0.0,7.6,132.0,9.9,'11111222,11111222,11111222' 
TCOON,ioos:station:TCOON:005:1,2009-08-02T22:00:00Z,27.6346,-97.2370,0.0,7.9,139.0,9.5,'11111222,11111222,11111222' 
TCOON,ioos:station:TCOON:005:1,2009-08-02T23:00:00Z,27.6346,-97.2370,0.0,8.5,124.0,10.6,'11111222,11111222,11111222' 
TCOON,ioos:station:TCOON:005:1,2009-08-03T00:00:00Z,27.6346,-97.2370,0.0,6.3,131.0,8.8,'11111222,11111222,11111222' 
TCOON,ioos:station:TCOON:005:1,2009-08-03T01:00:00Z,27.6346,-97.2370,0.0,4.9,141.0,6.1,'11111222,11111222,11111222' 
TCOON,ioos:station:TCOON:005:1,2009-08-03T02:00:00Z,27.6346,-97.2370,0.0,5.1,132.0,6.4,'11111222,11111222,11111222' 
TCOON,ioos:station:TCOON:005:1,2009-08-03T03:00:00Z,27.6346,-97.2370,0.0,3.7,141.0,5.2,'11111222,11111222,11111222' 
TCOON,ioos:station:TCOON:005:1,2009-08-03T04:00:00Z,27.6346,-97.2370,0.0,3.8,151.0,5.4,'11111222,11111222,11111222' 
TCOON,ioos:station:TCOON:005:1,2009-08-03T05:00:00Z,27.6346,-97.2370,0.0,4.0,147.0,5.5,'11111222,11111222,11111222' 
TCOON,ioos:station:TCOON:005:1,2009-08-03T06:00:00Z,27.6346,-97.2370,0.0,3.9,154.0,4.8,'11111222,11111222,11111222' 
TCOON,ioos:station:TCOON:005:1,2009-08-03T07:00:00Z,27.6346,-97.2370,0.0,3.8,156.0,5.2,'11111222,11111222,11111222' 
TCOON,ioos:station:TCOON:005:1,2009-08-03T08:00:00Z,27.6346,-97.2370,0.0,3.0,152.0,4.0,'11111222,11111222,11111222' 
TCOON,ioos:station:TCOON:005:1,2009-08-03T09:00:00Z,27.6346,-97.2370,0.0,4.0,151.0,5.3,'11111222,11111222,11111222' 
TCOON,ioos:station:TCOON:005:1,2009-08-03T10:00:00Z,27.6346,-97.2370,0.0,3.4,153.0,4.7,'11111222,11111222,11111222' 
TCOON,ioos:station:TCOON:005:1,2009-08-03T11:00:00Z,27.6346,-97.2370,0.0,2.3,152.0,3.4,'11111222,11111222,11111222' 
TCOON,ioos:station:TCOON:005:1,2009-08-03T12:00:00Z,27.6346,-97.2370,0.0,2.2,139.0,3.0,'11111222,11111222,11111222' 
TCOON,ioos:station:TCOON:005:1,2009-08-03T13:00:00Z,27.6346,-97.2370,0.0,2.2,157.0,2.9,'11111222,11111222,11111222' 
TCOON,ioos:station:TCOON:005:1,2009-08-03T14:00:00Z,27.6346,-97.2370,0.0,3.8,174.0,4.8,'11111222,11111222,11111222' 
TCOON,ioos:station:TCOON:005:1,2009-08-03T15:00:00Z,27.6346,-97.2370,0.0,5.1,162.0,6.5,'11111222,11111222,11111222' 
TCOON,ioos:station:TCOON:005:1,2009-08-03T16:00:00Z,27.6346,-97.2370,0.0,4.7,157.0,6.0,'11111222,11111222,11111222' 
TCOON,ioos:station:TCOON:005:1,2009-08-03T17:00:00Z,27.6346,-97.2370,0.0,5.0,148.0,7.3,'11111222,11111222,11111222' 
TCOON,ioos:station:TCOON:005:1,2009-08-03T18:00:00Z,27.6346,-97.2370,0.0,5.7,137.0,7.7,'11111222,11111222,11111222' 
TCOON,ioos:station:TCOON:005:1,2009-08-03T19:00:00Z,27.6346,-97.2370,0.0,7.4,123.0,10.0,'11111222,11111222,11111222' 
TCOON,ioos:station:TCOON:005:1,2009-08-03T20:00:00Z,27.6346,-97.2370,0.0,5.5,141.0,8.1,'11111222,11111222,11111222' 
TCOON,ioos:station:TCOON:005:1,2009-08-03T21:00:00Z,27.6346,-97.2370,0.0,7.0,135.0,8.5,'11111222,11111222,11111222' 
TCOON,ioos:station:TCOON:005:1,2009-08-03T22:00:00Z,27.6346,-97.2370,0.0,7.8,131.0,9.9,'11111222,11111222,11111222' 
TCOON,ioos:station:TCOON:005:1,2009-08-03T23:00:00Z,27.6346,-97.2370,0.0,7.5,148.0,9.7,'11111222,11111222,11111222' 
TCOON,ioos:station:TCOON:005:1,2009-08-04T00:00:00Z,27.6346,-97.2370,0.0,6.8,139.0,8.0,'11111222,11111222,11111222' 
TCOON,ioos:station:TCOON:005:1,2009-08-04T01:00:00Z,27.6346,-97.2370,0.0,4.8,126.0,5.9,'11111222,11111222,11111222' 
TCOON,ioos:station:TCOON:005:1,2009-08-04T02:00:00Z,27.6346,-97.2370,0.0,4.7,126.0,5.9,'11111222,11111222,11111222' 
TCOON,ioos:station:TCOON:005:1,2009-08-04T03:00:00Z,27.6346,-97.2370,0.0,4.9,133.0,7.2,'11111222,11111222,11111222' 
TCOON,ioos:station:TCOON:005:1,2009-08-04T04:00:00Z,27.6346,-97.2370,0.0,4.5,140.0,6.2,'11111222,11111222,11111222' 
TCOON,ioos:station:TCOON:005:1,2009-08-04T05:00:00Z,27.6346,-97.2370,0.0,4.4,140.0,6.0,'11111222,11111222,11111222' 
TCOON,ioos:station:TCOON:005:1,2009-08-04T06:00:00Z,27.6346,-97.2370,0.0,3.6,140.0,4.8,'11111222,11111222,11111222' 
TCOON,ioos:station:TCOON:005:1,2009-08-04T07:00:00Z,27.6346,-97.2370,0.0,3.9,156.0,5.4,'11111222,11111222,11111222' 
TCOON,ioos:station:TCOON:005:1,2009-08-04T08:00:00Z,27.6346,-97.2370,0.0,2.8,158.0,3.7,'11111222,11111222,11111222' 
TCOON,ioos:station:TCOON:005:1,2009-08-04T09:00:00Z,27.6346,-97.2370,0.0,2.7,159.0,3.7,'11111222,11111222,11111222' 
TCOON,ioos:station:TCOON:005:1,2009-08-04T10:00:00Z,27.6346,-97.2370,0.0,3.4,154.0,4.7,'11111222,11111222,11111222' 
TCOON,ioos:station:TCOON:005:1,2009-08-04T11:00:00Z,27.6346,-97.2370,0.0,2.4,158.0,3.5,'11111222,11111222,11111222' 
TCOON,ioos:station:TCOON:005:1,2009-08-04T12:00:00Z,27.6346,-97.2370,0.0,2.5,160.0,2.9,'11111222,11111222,11111222' 
TCOON,ioos:station:TCOON:005:1,2009-08-04T13:00:00Z,27.6346,-97.2370,0.0,2.7,153.0,4.2,'11111222,11111222,11111222' 
TCOON,ioos:station:TCOON:005:1,2009-08-04T14:00:00Z,27.6346,-97.2370,0.0,4.1,151.0,5.3,'11111222,11111222,11111222' 
TCOON,ioos:station:TCOON:005:1,2009-08-04T15:00:00Z,27.6346,-97.2370,0.0,4.5,152.0,6.7,'11111222,11111222,11111222' 
TCOON,ioos:station:TCOON:005:1,2009-08-04T16:00:00Z,27.6346,-97.2370,0.0,4.6,138.0,5.9,'11111222,11111222,11111222' 
TCOON,ioos:station:TCOON:005:1,2009-08-04T17:00:00Z,27.6346,-97.2370,0.0,5.4,134.0,8.1,'11111222,11111222,11111222' 
TCOON,ioos:station:TCOON:005:1,2009-08-04T18:00:00Z,27.6346,-97.2370,0.0,5.9,148.0,7.3,'11111222,11111222,11111222' 
TCOON,ioos:station:TCOON:005:1,2009-08-04T19:00:00Z,27.6346,-97.2370,0.0,6.2,131.0,7.7,'11111222,11111222,11111222' 
TCOON,ioos:station:TCOON:005:1,2009-08-04T20:00:00Z,27.6346,-97.2370,0.0,6.2,133.0,8.3,'11111222,11111222,11111222' 
TCOON,ioos:station:TCOON:005:1,2009-08-04T21:00:00Z,27.6346,-97.2370,0.0,7.0,116.0,9.1,'11111222,11111222,11111222' 
TCOON,ioos:station:TCOON:005:1,2009-08-04T22:00:00Z,27.6346,-97.2370,0.0,8.3,128.0,10.2,'11111222,11111222,11111222' 
TCOON,ioos:station:TCOON:005:1,2009-08-04T23:00:00Z,27.6346,-97.2370,0.0,8.1,120.0,9.7,'11111222,11111222,11111222' 
TCOON,ioos:station:TCOON:005:1,2009-08-05T00:00:00Z,27.6346,-97.2370,0.0,6.3,125.0,8.0,'11111222,11111222,11111222' 
TCOON,ioos:station:TCOON:005:1,2009-08-05T01:00:00Z,27.6346,-97.2370,0.0,5.7,134.0,7.8,'11111222,11111222,11111222' 
TCOON,ioos:station:TCOON:005:1,2009-08-05T02:00:00Z,27.6346,-97.2370,0.0,5.6,141.0,7.3,'11111222,11111222,11111222' 
TCOON,ioos:station:TCOON:005:1,2009-08-05T03:00:00Z,27.6346,-97.2370,0.0,5.1,142.0,6.4,'11111222,11111222,11111222' 
TCOON,ioos:station:TCOON:005:1,2009-08-05T04:00:00Z,27.6346,-97.2370,0.0,4.6,146.0,6.4,'11111222,11111222,11111222' 
TCOON,ioos:station:TCOON:005:1,2009-08-05T05:00:00Z,27.6346,-97.2370,0.0,4.4,150.0,6.3,'11111222,11111222,11111222' 
TCOON,ioos:station:TCOON:005:1,2009-08-05T06:00:00Z,27.6346,-97.2370,0.0,3.4,153.0,5.0,'11111222,11111222,11111222' 
TCOON,ioos:station:TCOON:005:1,2009-08-05T07:00:00Z,27.6346,-97.2370,0.0,3.7,162.0,4.8,'11111222,11111222,11111222' 
TCOON,ioos:station:TCOON:005:1,2009-08-05T08:00:00Z,27.6346,-97.2370,0.0,3.6,164.0,5.9,'11111222,11111222,11111222' 
TCOON,ioos:station:TCOON:005:1,2009-08-05T09:00:00Z,27.6346,-97.2370,0.0,3.1,166.0,3.8,'11111222,11111222,11111222' 
TCOON,ioos:station:TCOON:005:1,2009-08-05T10:00:00Z,27.6346,-97.2370,0.0,3.1,170.0,4.1,'11111222,11111222,11111222' 
TCOON,ioos:station:TCOON:005:1,2009-08-05T11:00:00Z,27.6346,-97.2370,0.0,2.3,168.0,3.6,'11111222,11111222,11111222' 
TCOON,ioos:station:TCOON:005:1,2009-08-05T12:00:00Z,27.6346,-97.2370,0.0,2.2,158.0,2.8,'11111222,11111222,11111222' 
TCOON,ioos:station:TCOON:005:1,2009-08-05T13:00:00Z,27.6346,-97.2370,0.0,3.1,162.0,4.3,'11111222,11111222,11111222' 
TCOON,ioos:station:TCOON:005:1,2009-08-05T14:00:00Z,27.6346,-97.2370,0.0,4.4,159.0,6.3,'11111222,11111222,11111222' 
TCOON,ioos:station:TCOON:005:1,2009-08-05T15:00:00Z,27.6346,-97.2370,0.0,5.0,147.0,6.6,'11111222,11111222,11111222' 
TCOON,ioos:station:TCOON:005:1,2009-08-05T16:00:00Z,27.6346,-97.2370,0.0,4.1,153.0,6.3,'11111222,11111222,11111222' 
TCOON,ioos:station:TCOON:005:1,2009-08-05T17:00:00Z,27.6346,-97.2370,0.0,5.0,142.0,5.9,'11111222,11111222,11111222' 
TCOON,ioos:station:TCOON:005:1,2009-08-05T18:00:00Z,27.6346,-97.2370,0.0,5.3,134.0,6.9,'11111222,11111222,11111222' 
TCOON,ioos:station:TCOON:005:1,2009-08-05T19:00:00Z,27.6346,-97.2370,0.0,6.5,116.0,7.3,'11111222,11111222,11111222' 
TCOON,ioos:station:TCOON:005:1,2009-08-05T20:00:00Z,27.6346,-97.2370,0.0,7.5,105.0,8.7,'11111222,11111222,11111222' 
TCOON,ioos:station:TCOON:005:1,2009-08-05T21:00:00Z,27.6346,-97.2370,0.0,8.2,116.0,9.4,'11111222,11111222,11111222' 
TCOON,ioos:station:TCOON:005:1,2009-08-05T22:00:00Z,27.6346,-97.2370,0.0,7.8,106.0,9.3,'11111222,11111222,11111222' 
TCOON,ioos:station:TCOON:005:1,2009-08-05T23:00:00Z,27.6346,-97.2370,0.0,8.4,115.0,10.2,'11111222,11111222,11111222' 
TCOON,ioos:station:TCOON:005:1,2009-08-06T00:00:00Z,27.6346,-97.2370,0.0,7.6,116.0,9.1,'11111222,11111222,11111222' 
TCOON,ioos:station:TCOON:005:1,2009-08-06T01:00:00Z,27.6346,-97.2370,0.0,5.8,119.0,7.7,'11111222,11111222,11111222' 
TCOON,ioos:station:TCOON:005:1,2009-08-06T02:00:00Z,27.6346,-97.2370,0.0,5.0,129.0,6.4,'11111222,11111222,11111222' 
TCOON,ioos:station:TCOON:005:1,2009-08-06T03:00:00Z,27.6346,-97.2370,0.0,4.5,153.0,6.1,'11111222,11111222,11111222' 
TCOON,ioos:station:TCOON:005:1,2009-08-06T04:00:00Z,27.6346,-97.2370,0.0,4.2,154.0,6.1,'11111222,11111222,11111222' 
TCOON,ioos:station:TCOON:005:1,2009-08-06T05:00:00Z,27.6346,-97.2370,0.0,3.9,157.0,4.9,'11111222,11111222,11111222' 
TCOON,ioos:station:TCOON:005:1,2009-08-06T06:00:00Z,27.6346,-97.2370,0.0,3.8,168.0,4.7,'11111222,11111222,11111222' 
TCOON,ioos:station:TCOON:005:1,2009-08-06T07:00:00Z,27.6346,-97.2370,0.0,3.3,170.0,4.4,'11111222,11111222,11111222' 
TCOON,ioos:station:TCOON:005:1,2009-08-06T08:00:00Z,27.6346,-97.2370,0.0,3.7,189.0,4.3,'11111222,11111222,11111222' 
TCOON,ioos:station:TCOON:005:1,2009-08-06T09:00:00Z,27.6346,-97.2370,0.0,4.3,195.0,5.4,'11111222,11111222,11111222' 
TCOON,ioos:station:TCOON:005:1,2009-08-06T10:00:00Z,27.6346,-97.2370,0.0,3.5,199.0,4.3,'11111222,11111222,11111222' 
TCOON,ioos:station:TCOON:005:1,2009-08-06T11:00:00Z,27.6346,-97.2370,0.0,3.2,229.0,3.6,'11111222,11111222,11111222' 
TCOON,ioos:station:TCOON:005:1,2009-08-06T12:00:00Z,27.6346,-97.2370,0.0,1.0,169.0,1.2,'11111222,11111222,11111222' 
TCOON,ioos:station:TCOON:005:1,2009-08-06T13:00:00Z,27.6346,-97.2370,0.0,1.5,184.0,2.0,'11111222,11111222,11111222' 
TCOON,ioos:station:TCOON:005:1,2009-08-06T14:00:00Z,27.6346,-97.2370,0.0,2.7,192.0,3.5,'11111222,11111222,11111222' 
TCOON,ioos:station:TCOON:005:1,2009-08-06T15:00:00Z,27.6346,-97.2370,0.0,3.4,187.0,4.5,'11111222,11111222,11111222' 
TCOON,ioos:station:TCOON:005:1,2009-08-06T16:00:00Z,27.6346,-97.2370,0.0,4.0,122.0,5.5,'11111222,11111222,11111222' 
TCOON,ioos:station:TCOON:005:1,2009-08-06T17:00:00Z,27.6346,-97.2370,0.0,4.1,152.0,6.0,'11111222,11111222,11111222' 
TCOON,ioos:station:TCOON:005:1,2009-08-06T18:00:00Z,27.6346,-97.2370,0.0,4.7,148.0,7.5,'11111222,11111222,11111222' 
TCOON,ioos:station:TCOON:005:1,2009-08-06T19:00:00Z,27.6346,-97.2370,0.0,4.8,127.0,6.2,'11111222,11111222,11111222' 
TCOON,ioos:station:TCOON:005:1,2009-08-06T20:00:00Z,27.6346,-97.2370,0.0,4.8,124.0,7.1,'11111222,11111222,11111222' 
TCOON,ioos:station:TCOON:005:1,2009-08-06T21:00:00Z,27.6346,-97.2370,0.0,6.3,119.0,9.5,'11111222,11111222,11111222' 
TCOON,ioos:station:TCOON:005:1,2009-08-06T22:00:00Z,27.6346,-97.2370,0.0,6.8,117.0,8.2,'11111222,11111222,11111222' 
TCOON,ioos:station:TCOON:005:1,2009-08-06T23:00:00Z,27.6346,-97.2370,0.0,5.8,123.0,7.4,'11111222,11111222,11111222' 
TCOON,ioos:station:TCOON:005:1,2009-08-07T00:00:00Z,27.6346,-97.2370,0.0,5.9,128.0,7.6,'11111222,11111222,11111222' 
TCOON,ioos:station:TCOON:005:1,2009-08-07T01:00:00Z,27.6346,-97.2370,0.0,5.7,128.0,6.8,'11111222,11111222,11111222' 
TCOON,ioos:station:TCOON:005:1,2009-08-07T02:00:00Z,27.6346,-97.2370,0.0,4.6,132.0,5.8,'11111222,11111222,11111222' 
TCOON,ioos:station:TCOON:005:1,2009-08-07T03:00:00Z,27.6346,-97.2370,0.0,3.8,136.0,4.8,'11111222,11111222,11111222' 
TCOON,ioos:station:TCOON:005:1,2009-08-07T04:00:00Z,27.6346,-97.2370,0.0,4.9,142.0,5.9,'11111222,11111222,11111222' 
TCOON,ioos:station:TCOON:005:1,2009-08-07T05:00:00Z,27.6346,-97.2370,0.0,4.0,158.0,5.2,'11111222,11111222,11111222' 
TCOON,ioos:station:TCOON:005:1,2009-08-07T06:00:00Z,27.6346,-97.2370,0.0,3.7,160.0,4.7,'11111222,11111222,11111222' 
TCOON,ioos:station:TCOON:005:1,2009-08-07T07:00:00Z,27.6346,-97.2370,0.0,2.9,152.0,3.6,'11111222,11111222,11111222' 
TCOON,ioos:station:TCOON:005:1,2009-08-07T08:00:00Z,27.6346,-97.2370,0.0,3.2,171.0,4.2,'11111222,11111222,11111222' 
TCOON,ioos:station:TCOON:005:1,2009-08-07T09:00:00Z,27.6346,-97.2370,0.0,3.1,172.0,4.3,'11111222,11111222,11111222' 
TCOON,ioos:station:TCOON:005:1,2009-08-07T10:00:00Z,27.6346,-97.2370,0.0,3.0,170.0,3.9,'11111222,11111222,11111222' 
TCOON,ioos:station:TCOON:005:1,2009-08-07T11:00:00Z,27.6346,-97.2370,0.0,2.1,175.0,2.8,'11111222,11111222,11111222' 
TCOON,ioos:station:TCOON:005:1,2009-08-07T12:00:00Z,27.6346,-97.2370,0.0,1.3,170.0,1.9,'11111222,11111222,11111222' 
TCOON,ioos:station:TCOON:005:1,2009-08-07T13:00:00Z,27.6346,-97.2370,0.0,1.4,164.0,1.7,'11111222,11111222,11111222' 
TCOON,ioos:station:TCOON:005:1,2009-08-07T14:00:00Z,27.6346,-97.2370,0.0,2.5,170.0,4.1,'11111222,11111222,11111222' 
TCOON,ioos:station:TCOON:005:1,2009-08-07T15:00:00Z,27.6346,-97.2370,0.0,3.2,141.0,4.2,'11111222,11111222,11111222' 
TCOON,ioos:station:TCOON:005:1,2009-08-07T16:00:00Z,27.6346,-97.2370,0.0,5.0,120.0,6.4,'11111222,11111222,11111222' 
TCOON,ioos:station:TCOON:005:1,2009-08-07T17:00:00Z,27.6346,-97.2370,0.0,5.6,118.0,6.7,'11111222,11111222,11111222' 
TCOON,ioos:station:TCOON:005:1,2009-08-07T18:00:00Z,27.6346,-97.2370,0.0,6.7,108.0,7.9,'11111222,11111222,11111222' 
TCOON,ioos:station:TCOON:005:1,2009-08-07T19:00:00Z,27.6346,-97.2370,0.0,6.4,117.0,8.1,'11111222,11111222,11111222' 
TCOON,ioos:station:TCOON:005:1,2009-08-07T20:00:00Z,27.6346,-97.2370,0.0,6.7,114.0,8.1,'11111222,11111222,11111222' 
TCOON,ioos:station:TCOON:005:1,2009-08-07T21:00:00Z,27.6346,-97.2370,0.0,7.1,127.0,9.8,'11111222,11111222,11111222' 
TCOON,ioos:station:TCOON:005:1,2009-08-07T22:00:00Z,27.6346,-97.2370,0.0,6.5,126.0,7.9,'11111222,11111222,11111222' 
TCOON,ioos:station:TCOON:005:1,2009-08-07T23:00:00Z,27.6346,-97.2370,0.0,5.7,118.0,7.5,'11111222,11111222,11111222' 
TCOON,ioos:station:TCOON:005:1,2009-08-08T00:00:00Z,27.6346,-97.2370,0.0,5.8,128.0,7.0,'11111222,11111222,11111222' 
TCOON,ioos:station:TCOON:005:1,2009-08-08T01:00:00Z,27.6346,-97.2370,0.0,4.7,132.0,6.2,'11111222,11111222,11111222' 
TCOON,ioos:station:TCOON:005:1,2009-08-08T02:00:00Z,27.6346,-97.2370,0.0,5.1,123.0,6.1,'11111222,11111222,11111222' 
TCOON,ioos:station:TCOON:005:1,2009-08-08T03:00:00Z,27.6346,-97.2370,0.0,4.6,115.0,5.5,'11111222,11111222,11111222' 
TCOON,ioos:station:TCOON:005:1,2009-08-08T04:00:00Z,27.6346,-97.2370,0.0,4.9,127.0,13.3,'11111222,11111222,11111222' 
TCOON,ioos:station:TCOON:005:1,2009-08-08T05:00:00Z,27.6346,-97.2370,0.0,5.7,126.0,7.6,'11111222,11111222,11111222' 
TCOON,ioos:station:TCOON:005:1,2009-08-08T06:00:00Z,27.6346,-97.2370,0.0,4.7,130.0,5.8,'11111222,11111222,11111222' 
TCOON,ioos:station:TCOON:005:1,2009-08-08T07:00:00Z,27.6346,-97.2370,0.0,3.7,134.0,4.5,'11111222,11111222,11111222' 
TCOON,ioos:station:TCOON:005:1,2009-08-08T08:00:00Z,27.6346,-97.2370,0.0,3.1,154.0,4.4,'11111222,11111222,11111222' 
TCOON,ioos:station:TCOON:005:1,2009-08-08T09:00:00Z,27.6346,-97.2370,0.0,2.4,152.0,3.3,'11111222,11111222,11111222' 
TCOON,ioos:station:TCOON:005:1,2009-08-08T10:00:00Z,27.6346,-97.2370,0.0,2.7,170.0,3.7,'11111222,11111222,11111222' 
TCOON,ioos:station:TCOON:005:1,2009-08-08T11:00:00Z,27.6346,-97.2370,0.0,1.9,164.0,2.4,'11111222,11111222,11111222' 
TCOON,ioos:station:TCOON:005:1,2009-08-08T12:00:00Z,27.6346,-97.2370,0.0,1.9,157.0,2.4,'11111222,11111222,11111222' 
TCOON,ioos:station:TCOON:005:1,2009-08-08T13:00:00Z,27.6346,-97.2370,0.0,1.6,170.0,2.4,'11111222,11111222,11111222' 
TCOON,ioos:station:TCOON:005:1,2009-08-08T14:00:00Z,27.6346,-97.2370,0.0,3.9,153.0,6.7,'11111222,11111222,11111222' 
TCOON,ioos:station:TCOON:005:1,2009-08-08T15:00:00Z,27.6346,-97.2370,0.0,5.6,143.0,7.3,'11111222,11111222,11111222' 
TCOON,ioos:station:TCOON:005:1,2009-08-08T16:00:00Z,27.6346,-97.2370,0.0,6.5,135.0,8.5,'11111222,11111222,11111222' 
TCOON,ioos:station:TCOON:005:1,2009-08-08T17:00:00Z,27.6346,-97.2370,0.0,5.7,133.0,8.2,'11111222,11111222,11111222' 
TCOON,ioos:station:TCOON:005:1,2009-08-08T18:00:00Z,27.6346,-97.2370,0.0,5.8,122.0,7.3,'11111222,11111222,11111222' 
TCOON,ioos:station:TCOON:005:1,2009-08-08T19:00:00Z,27.6346,-97.2370,0.0,6.2,120.0,8.7,'11111222,11111222,11111222' 
TCOON,ioos:station:TCOON:005:1,2009-08-08T20:00:00Z,27.6346,-97.2370,0.0,8.7,118.0,10.1,'11111222,11111222,11111222' 
TCOON,ioos:station:TCOON:005:1,2009-08-08T21:00:00Z,27.6346,-97.2370,0.0,8.6,121.0,10.3,'11111222,11111222,11111222' 
TCOON,ioos:station:TCOON:005:1,2009-08-08T22:00:00Z,27.6346,-97.2370,0.0,9.0,119.0,11.1,'11111222,11111222,11111222' 
TCOON,ioos:station:TCOON:005:1,2009-08-08T23:00:00Z,27.6346,-97.2370,0.0,8.4,121.0,10.8,'11111222,11111222,11111222' 
TCOON,ioos:station:TCOON:005:1,2009-08-09T00:00:00Z,27.6346,-97.2370,0.0,8.2,127.0,10.1,'11111222,11111222,11111222' 
TCOON,ioos:station:TCOON:005:1,2009-08-09T01:00:00Z,27.6346,-97.2370,0.0,7.4,125.0,8.9,'11111222,11111222,11111222' 
TCOON,ioos:station:TCOON:005:1,2009-08-09T02:00:00Z,27.6346,-97.2370,0.0,7.6,133.0,9.8,'11111222,11111222,11111222' 
TCOON,ioos:station:TCOON:005:1,2009-08-09T03:00:00Z,27.6346,-97.2370,0.0,6.7,134.0,8.6,'11111222,11111222,11111222' 
TCOON,ioos:station:TCOON:005:1,2009-08-09T04:00:00Z,27.6346,-97.2370,0.0,5.7,141.0,8.2,'11111222,11111222,11111222' 
TCOON,ioos:station:TCOON:005:1,2009-08-09T05:00:00Z,27.6346,-97.2370,0.0,4.9,149.0,6.7,'11111222,11111222,11111222' 
TCOON,ioos:station:TCOON:005:1,2009-08-09T06:00:00Z,27.6346,-97.2370,0.0,5.1,150.0,7.1,'11111222,11111222,11111222' 
TCOON,ioos:station:TCOON:005:1,2009-08-09T07:00:00Z,27.6346,-97.2370,0.0,5.0,153.0,6.9,'11111222,11111222,11111222' 
TCOON,ioos:station:TCOON:005:1,2009-08-09T08:00:00Z,27.6346,-97.2370,0.0,3.8,158.0,4.7,'11111222,11111222,11111222' 
TCOON,ioos:station:TCOON:005:1,2009-08-09T09:00:00Z,27.6346,-97.2370,0.0,4.6,160.0,5.8,'11111222,11111222,11111222' 
TCOON,ioos:station:TCOON:005:1,2009-08-09T10:00:00Z,27.6346,-97.2370,0.0,3.6,158.0,4.7,'11111222,11111222,11111222' 
TCOON,ioos:station:TCOON:005:1,2009-08-09T11:00:00Z,27.6346,-97.2370,0.0,3.4,160.0,4.9,'11111222,11111222,11111222' 
TCOON,ioos:station:TCOON:005:1,2009-08-09T12:00:00Z,27.6346,-97.2370,0.0,3.5,167.0,4.4,'11111222,11111222,11111222' 